Location: Braunsdorf
(50.7357°N, 11.9136°E)
Time: 05:05:45
(UTC+00:00)

SL-16 R/B - Pass Details

Date: 17 February 2020
Orbit: 843 x 847 km, 71.0° (Epoch: 29 March)

Event Time Altitude Azimuth Distance (km) Brightness Sun altitude
Exits shadow 02:59:57 32° 133° (SE) 1,404 3.4 -32.2°
Maximum altitude 03:01:10 36° 107° (ESE) 1,315 3.5 -32.0°
Drops below altitude 10° 03:06:17 10° 43° (NE) 2,477 5.3 -31.2°
Sets 03:08:54 0° 35° (NE) 3,416 6.1 -30.9°
